Location: Newark
(5.5500°N, 0.2500°W)
Time: 16:21:21
(UTC+00:00)

LightSail 2 - Visible Passes

Search period start: 18 September 2019 00:00
Search period end: 28 September 2019 00:00
Orbit: 701 x 731 km, 24.0° (Epoch: 18 September)

Date Brightness Start Highest point End Pass type
(mag) Time Alt. Az. Time Alt. Az. Time Alt. Az.
18 Sep 5.9 04:04:26 40° N 04:04:26 40° N 04:08:20 10° NE visible
19 Sep 8.0 03:10:56 12° ENE 03:10:56 12° ENE 03:11:17 10° ENE visible
19 Sep 6.7 04:49:58 16° NW 04:52:04 21° NNW 04:55:52 10° NNE visible
20 Sep 6.9 03:56:27 22° NNE 03:56:27 22° NNE 03:59:02 10° NE visible
21 Sep 7.1 04:41:55 12° NW 04:43:32 14° NNW 04:46:13 10° NNE visible
22 Sep 7.5 03:48:20 14° NNE 03:48:20 14° NNE 03:49:31 10° NNE visible
23 Sep 7.4 04:34:15 10° NNW 04:35:07 10° N 04:36:00 10° N visible
